Погода в Канильо

Андорра     42˚33′59″N   1˚35′52″E
темп.,
°C
ветер,
м/с
пор.,
м/с
влажн.,
%
обл.,
%
осадки,
мм/ч
давл.,
гПа
погр.,
м
16 января, сб
сб1601:00−7˚с698521 0.2 1026300
04:00−7˚ссв678424 0.0 1026160
07:00−8˚ссв566112 0.0 1027102
10:00−5˚ссв46573 0.0 1028148
13:00+1˚с46543 0.0 1026563
16:00−1˚с35747 0.0 1026390
19:00−4˚с458225 0.0 1027119
22:00−2˚с349376 0.5 102897
17 января, вс
вс1701:00−2˚с339374 0.6 102764
04:00−2˚с449318 0.0 102590
07:00−1˚с349328 0.2 1025117
10:00+1˚ссз349562 1.0 1026229
13:00+2˚ссз349373 2.2 1025433
16:00+2˚ссз349393 0.9 1024414
19:00−1˚с349570 1.7 1025132
22:00−1˚с239687 1.3 1026107
18 января, пн
пн1801:00−2˚с349492 1.7 1027121
04:00−4˚ссв339284 0.0 102660
07:00−2˚с349392 0.4 1027121
10:00с3491100 0.3 1027382
13:00+2˚с238376 0.3 1027494
16:00+1˚с228744 0.0 1025406
19:00−4˚ссв338936 0.0 102734
22:00−4˚ссв22785 0.0 102721
19 января, вт
вт1901:00−5˚ссв01782 0.0 102721
04:00−5˚св01820 0.0 102521
07:00−5˚св018526 0.0 102421
10:00−1˚ююз11903 0.0 102488
13:00+1˚ююз34863 0.0 1022334
16:00+1˚ююз348413 0.0 1020307
19:00−5˚ююз119119 0.0 102035
22:00−4˚ю128437 0.0 101938
20 января, ср
ср2001:00−4˚ю228069 0.0 101847
04:00−4˚ююз237197 0.0 101658
07:00−4˚ю247198 0.0 101469
10:00−2˚ююз3572100 0.0 1013171
13:00ююз51068100 0.0 1011736
16:00ююз61284100 0.1 10081063
19:00−2˚ююз4899100 1.8 1008435
22:00−2˚ююз4799100 3.4 1008381